Miscellaneous Local Product
Issued by NWS North Platte, NE

Home | Current Version | Previous Version | Text Only | Print | Product List | Glossary On
Versions: 1 2 3 4 5 6 7 8 9 10 11 12 13 14 15 16 17 18 19 20 21 22 23 24 25 26 27 28 29 30 31 32 33 34 35 36 37 38 39 40 41 42 43 44 45 46 47 48 49 50
000
AXUS43 KLBF 190210
MISLBF


WESTERN AND NORTH CENTRAL NEBRASKA HOURLY WEATHER ROUNDUP
NATIONAL WEATHER SERVICE NORTH PLATTE NE
900 PM CDT MON AUG 18 2014

***STATIONS NOT REPORTING VARIABLES SUCH AS SKY/WEATHER OR
PRESSURE ARE PROVIDED BY THE NEBRASKA DEPARTMENT OF
ROADS...RAWS...AND APRS NETWORKS...AND ARE NOT UNDER
NATIONAL WEATHER SERVICE QUALITY CONTROL***

...OBSERVATIONS IN AND NEAR THE EASTERN PANHANDLE OF NEBRASKA...

CITY           SKY/WX    TMP DP  RH WIND       PRES   REMARKS
PINE RIDGE     CLEAR     70  58  65 E5        29.94R
CHADRON        PTCLDY    77  55  46 E8        29.93R
ALLIANCE       CLEAR     69  61  75 NE8       29.95S
SIDNEY         LGT RAIN  68  56  65 S15G23    30.02R
WHITECLAY        N/A     76  52  43 NE7         N/A
RUSHVILLE        N/A     76  51  41 E12         N/A
GORDON           N/A     80  53  39 N8          N/A
CRESCENT LAKE    N/A     75  45  34 S6          N/A
LISCO            N/A     76  57  51 E3          N/A
BIG SPRINGS      N/A     72  61  68 SE3         N/A
$$

...OBSERVATIONS IN NORTH CENTRAL NEBRASKA...

CITY           SKY/WX    TMP DP  RH WIND       PRES   REMARKS
VALENTINE      PTCLDY    77  57  50 N5        29.90R
THEDFORD       MOCLDY    77  62  59 CALM      29.91F
AINSWORTH      MOCLDY    71  60  68 N5        29.90R
O`NEILL        PTCLDY    72  64  77 N7        29.86R
ORD            CLOUDY    75  70  84 S3        29.84S
BROKEN BOW     CLOUDY    75  68  78 CALM      29.88S
BROWNLEE         N/A     82  53  36 N7          N/A
SPRINGVIEW       N/A     75  60  60 CALM        N/A
DUNNING          N/A     79  68  67 CALM        N/A
ROSE             N/A     81  64  55 N6          N/A
NEWPORT          N/A     77  60  55 CALM        N/A
SARGENT          N/A     77  68  73 CALM        N/A
COMSTOCK         N/A     80  74  83 S6          N/A
CHAMBERS         N/A     75  57  53 CALM        N/A
EWING            N/A     75  64  69 CALM        N/A
$$

...OBSERVATIONS IN SOUTHWEST NEBRASKA AND FAR NORTHEAST COLORADO...

CITY           SKY/WX    TMP DP  RH WIND       PRES   REMARKS
WRAY             N/A     78  56  46 NE30      29.96R
IMPERIAL       TSTM      73  56  54 NE7       29.96R
OGALLALA       CLOUDY    73  55  53 S7        29.93R
NORTH PLATTE   CLOUDY    73  65  75 CALM      29.89F
MCCOOK         CLOUDY    80  65  59 NE8       29.92R
LEXINGTON      CLOUDY    76  73  90 CALM      29.88F
PAXTON           N/A     78  54  43 CALM        N/A
SUTHERLAND       N/A     79  58  48 SW7         N/A
BRADY            N/A     77  67  71 CALM        N/A
GOTHENBURG       N/A     81  65  58 CALM        N/A
CALLAWAY         N/A     75  69  83 S7          N/A
$$

...SOME WEATHER OBSERVATIONS FROM AROUND THE REGION...

CITY           SKY/WX    TMP DP  RH WIND       PRES   REMARKS
DENVER         PTCLDY    72  48  42 E12       30.03F
LARAMIE        CLOUDY    71  33  24 S8        30.16R
CHEYENNE       PTCLDY    70  47  43 E9        30.09S
SCOTTSBLUFF    PTCLDY    73  61  65 SE3       29.95R
RAPID CITY     CLEAR     68  56  65 NE6       29.93R
PIERRE         CLEAR     71  57  61 NW8       29.81S
WINNER         FAIR      73  57  57 W7        29.85S
SIOUX FALLS    PTCLDY    74  63  68 W6        29.76R
OMAHA          PTCLDY    84  64  50 S6        29.77R
GRAND ISLAND   MOCLDY    78  69  73 CALM      29.86R
KANSAS CITY    CLEAR     80  70  71 SE6       29.81R
WICHITA        MOCLDY    79  63  57 S7        29.80R
HAYS           CLOUDY    86  68  54 SE12      29.81R
LIBERAL        CLOUDY    82  50  32 S15       29.90F
GOODLAND       CLOUDY    78  54  43 E9        29.93R
$$



USA.gov is the U.S. government's official web portal to all federal, state and local government web resources and services.